DF1NIF-13 Weather Reports


time (UTC)temp
C
wind
direction
speed
KPH
gust
KPH
rain 1hr
cm
rain 24hr
cm
rain mn
cm
humidity
%
barometer
mb
20260904094208 23 330 6.4 14.5 0.00 0.00 0.00 67 970.0
20260904093733 21 330 6.4 20.9 0.00 0.00 0.00 67 970.5
20260904093303 21 39 14.5 37.0 0.00 0.00 0.00 67 970.3
20260904092838 21 292 14.5 32.2 0.00 0.00 0.00 67 970.5
20260904092353 22 292 14.5 32.2 0.00 0.00 0.00 67 970.5
20260904091933 22 292 8.0 35.4 0.00 0.00 0.00 69 970.5
20260904091523 20 147 8.0 22.5 0.00 0.00 0.00 69 970.6
20260904091103 20 318 3.2 29.0 0.00 0.00 0.00 69 970.8
20260904090633 20 351 14.5 17.7 0.00 0.00 0.00 75 970.8
20260904090208 20 10 14.5 25.7 0.00 0.00 0.00 75 970.7
20260904085713 20 249 6.4 14.5 0.00 0.00 0.00 75 970.8
20260904085308 20 161 3.2 14.5 0.00 0.00 0.00 75 970.7
20260904084843 20 161 8.0 14.5 0.00 0.00 0.00 75 970.9
20260904084358 20 198 4.8 4.8 0.00 0.00 0.00 75 970.9
20260904083948 20 143 3.2 22.5 0.00 0.00 0.00 75 971.1
20260904083528 20 175 3.2 8.0 0.00 0.00 0.00 75 971.0
20260904083058 19 175 3.2 11.3 0.00 0.00 0.00 75 971.0
20260904082613 19 138 3.2 4.8 0.00 0.00 0.00 79 971.1
20260904082128 19 38 3.2 8.0 0.00 0.00 0.00 79 971.2
20260904081648 19 38 8.0 8.0 0.00 0.00 0.00 79 971.2
20260904081219 19 340 1.6 1.6 0.00 0.00 0.00 79 971.2
20260904080748 19 340 1.6 11.3 0.00 0.00 0.00 79 971.3
20260904080333 19 340 8.0 11.3 0.00 0.00 0.00 79 971.5
20260904075908 19 103 1.6 8.0 0.00 0.00 0.00 79 971.3
20260904075449 19 103 1.6 17.7 0.00 0.00 0.00 79 971.4
20260904075003 18 103 1.6 4.8 0.00 0.00 0.00 79 971.5
20260904074528 18 103 1.6 11.3 0.00 0.00 0.00 79 971.6
20260904074059 18 103 1.6 1.6 0.00 0.00 0.00 79 971.5
20260904073618 18 325 1.6 11.3 0.00 0.00 0.00 79 971.7
20260904073153 18 352 0.0 11.3 0.00 0.00 0.00 79 971.5
20260904072728 18 171 3.2 14.5 0.00 0.00 0.00 80 971.7
20260904072313 18 289 6.4 8.0 0.00 0.00 0.00 80 971.6
20260904071843 18 289 4.8 17.7 0.00 0.00 0.00 81 971.7
20260904071413 18 289 6.4 17.7 0.00 0.00 0.00 81 971.5
20260904070958 18 349 6.4 11.3 0.00 0.00 0.00 81 971.8
20260904070533 18 146 4.8 11.3 0.00 0.00 0.00 81 971.7
20260904070058 18 259 3.2 8.0 0.00 0.00 0.00 81 971.7
20260904065619 18 259 0.0 4.8 0.00 0.00 0.00 81 971.6
20260904065153 17 259 0.0 4.8 0.00 0.00 0.00 81 971.6
20260904064718 17 310 1.6 4.8 0.00 0.00 0.00 81 971.7
20260904064238 17 242 1.6 8.0 0.00 0.00 0.00 81 971.6
20260904063813 16 196 3.2 8.0 0.00 0.00 0.00 81 971.6
20260904063348 16 196 3.2 4.8 0.00 0.00 0.00 82 971.7
20260904062908 16 196 3.2 4.8 0.00 0.00 0.00 85 971.6
20260904062418 16 196 3.2 4.8 0.00 0.00 0.00 85 971.7
20260904061958 16 4 1.6 8.0 0.00 0.00 0.00 85 971.5
20260904061553 16 4 0.0 0.0 0.00 0.00 0.00 85 971.9
20260904061128 16 4 3.2 0.0 0.00 0.00 0.00 85 971.7
20260904060646 15 4 0.0 0.0 0.00 0.00 0.00 87 971.8
20260904060218 15 4 0.0 1.6 0.00 0.00 0.00 87 971.7
20260904055738 15 4 0.0 1.6 0.00 0.00 0.00 87 971.9
20260904055323 15 4 0.0 1.6 0.00 0.00 0.00 84 972.0
20260904054843 15 4 0.0 0.0 0.00 0.00 0.00 87 971.7
20260904054358 15 4 0.0 1.6 0.00 0.00 0.00 88 971.8
20260904053918 15 351 0.0 1.6 0.00 0.00 0.00 88 971.6
20260904053508 15 342 0.0 1.6 0.00 0.00 0.00 88 971.7
20260904053028 15 63 0.0 1.6 0.00 0.00 0.00 90 971.9
20260904052608 15 63 0.0 1.6 0.00 0.00 0.00 90 971.9
20260904052123 15 63 0.0 1.6 0.00 0.00 0.00 90 971.7
20260904051713 15 63 1.6 1.6 0.00 0.00 0.00 90 971.8
20260904051248 15 63 1.6 1.6 0.00 0.00 0.00 90 971.8
20260904050843 15 63 0.0 1.6 0.00 0.00 0.00 90 972.0
20260904050348 15 63 0.0 1.6 0.00 0.00 0.00 90 971.8
20260904045938 15 63 0.0 1.6 0.00 0.00 0.00 90 971.9
20260904045513 15 63 0.0 0.0 0.00 0.00 0.00 90 971.7
20260904045058 15 63 0.0 0.0 0.00 0.00 0.00 90 971.7
20260904044608 15 148 0.0 0.0 0.00 0.00 0.00 90 971.8
20260904044109 15 148 0.0 1.6 0.00 0.00 0.00 90 971.7
20260904043628 15 148 0.0 0.0 0.00 0.00 0.00 94 971.8
20260904043203 15 148 0.0 0.0 0.00 0.00 0.00 94 971.9
20260904042733 15 148 0.0 1.6 0.00 0.00 0.00 94 972.0
20260904042248 14 148 0.0 1.6 0.00 0.00 0.00 94 972.0
20260904041818 14 149 0.0 1.6 0.00 0.00 0.00 94 972.2
20260904041338 15 336 3.2 0.0 0.00 0.00 0.00 94 972.0
20260904040859 15 336 0.0 1.6 0.00 0.00 0.00 94 972.3
20260904040413 15 336 0.0 1.6 0.00 0.00 0.00 94 972.0
20260904035953 15 336 0.0 0.0 0.00 0.00 0.00 93 972.3
20260904035523 15 336 0.0 0.0 0.00 0.00 0.00 91 972.3
20260904035058 15 336 0.0 1.6 0.00 0.00 0.00 88 972.3
20260904034623 15 336 1.6 1.6 0.00 0.00 0.00 88 972.1
20260904034143 15 336 1.6 1.6 0.00 0.00 0.00 88 972.1
20260904033723 15 10 1.6 1.6 0.00 0.00 0.00 88 972.2
20260904033228 15 125 1.6 1.6 0.00 0.00 0.00 88 971.9
20260904032743 15 125 0.0 0.0 0.00 0.00 0.00 88 972.1
20260904032313 15 125 0.0 0.0 0.00 0.00 0.00 88 972.1
20260904031858 15 122 0.0 4.8 0.00 0.00 0.00 97 972.1
20260904031438 15 142 0.0 1.6 0.00 0.00 0.00 97 972.3
20260904031003 15 175 0.0 1.6 0.00 0.00 0.00 97 972.3
20260904030523 15 175 0.0 1.6 0.00 0.00 0.00 97 972.2
20260904030043 15 233 0.0 1.6 0.00 0.00 0.00 97 972.1
20260904025623 15 359 0.0 4.8 0.00 0.00 0.00 97 972.2
20260904025148 15 359 3.2 4.8 0.00 0.00 0.00 97 972.3
20260904024701 13 359 3.2 8.0 0.00 0.00 0.00 97 972.6
20260904024233 13 248 1.6 1.6 0.00 0.00 0.00 97 972.5
20260904023748 13 143 0.0 4.8 0.00 0.00 0.00 97 972.3
20260904023309 13 143 0.0 4.8 0.00 0.00 0.00 97 972.2
20260904022833 13 143 0.0 4.8 0.00 0.00 0.00 97 972.5
20260904022423 13 143 0.0 4.8 0.00 0.00 0.00 97 972.5
20260904021958 13 143 1.6 4.8 0.00 0.00 0.00 97 972.4
20260904021533 13 143 1.6 4.8 0.00 0.00 0.00 97 972.4
20260904021118 13 95 0.0 4.8 0.00 0.00 0.00 97 972.5
20260904020638 13 95 0.0 0.0 0.00 0.00 0.00 97 972.3
20260904020158 13 95 0.0 0.0 0.00 0.00 0.00 97 972.5
20260904015708 13 95 0.0 0.0 0.00 0.00 0.00 97 972.4
20260904015218 13 95 0.0 1.6 0.00 0.00 0.00 97 972.5
20260904014758 13 95 0.0 1.6 0.00 0.00 0.00 97 972.4
20260904014328 13 95 0.0 1.6 0.00 0.00 0.00 97 972.6
20260904013858 13 95 0.0 1.6 0.00 0.00 0.00 97 972.6
20260904013438 13 95 0.0 1.6 0.00 0.00 0.00 97 972.5
20260904013023 13 95 0.0 1.6 0.00 0.00 0.00 97 972.6
20260904012558 13 95 0.0 1.6 0.00 0.00 0.00 97 972.4
20260904012118 13 95 1.6 0.0 0.00 0.00 0.00 97 972.6
20260904011648 13 95 0.0 1.6 0.00 0.00 0.00 97 972.4
20260904011153 13 95 0.0 1.6 0.00 0.00 0.00 97 972.7
20260904010703 13 95 1.6 1.6 0.00 0.00 0.00 97 972.6
20260904010216 13 95 1.6 1.6 0.00 0.00 0.00 96 972.8
20260904005733 13 95 0.0 1.6 0.00 0.00 0.00 96 972.6
20260904005256 13 95 0.0 1.6 0.00 0.00 0.00 96 972.8
20260904004833 13 95 0.0 0.0 0.00 0.00 0.00 96 972.7
20260904004356 14 95 1.6 1.6 0.00 0.00 0.00 96 972.9
20260904003923 14 95 0.0 1.6 0.00 0.00 0.00 96 972.7
20260904003453 14 95 0.0 1.6 0.00 0.00 0.00 96 972.9
20260904003033 14 95 0.0 1.6 0.00 0.00 0.00 96 972.9
20260904002556 14 95 0.0 1.6 0.00 0.00 0.00 96 973.0
20260904002128 14 95 0.0 1.6 0.00 0.00 0.00 96 972.9
20260904001658 14 95 0.0 1.6 0.00 0.00 0.00 96 973.0
20260904001223 14 95 0.0 1.6 0.00 0.00 0.00 96 972.9
20260904000736 14 95 0.0 1.6 0.00 0.00 0.00 96 973.2
20260904000313 14 96 0.0 1.6 0.00 0.00 0.00 96 973.1
20260903235841 14 96 0.0 1.6 0.00 0.00 0.00 96 973.0
20260903235358 15 96 0.0 1.6 0.00 0.00 0.00 96 973.2
20260903234928 15 96 0.0 1.6 0.00 0.00 0.00 96 973.3
20260903234503 15 96 0.0 0.0 0.00 0.00 0.00 96 973.5
20260903234043 15 96 0.0 0.0 0.00 0.00 0.00 96 973.3
20260903233608 15 96 0.0 0.0 0.00 0.00 0.00 96 973.4
20260903233156 15 96 0.0 0.0 0.00 0.00 0.00 96 973.5
20260903232736 15 96 0.0 0.0 0.00 0.00 0.00 96 973.4
20260903232308 15 96 1.6 0.0 0.00 0.00 0.00 96 973.1
20260903231848 15 96 1.6 0.0 0.00 0.00 0.00 96 973.5
20260903231418 15 96 0.0 0.0 0.00 0.00 0.00 96 973.5
20260903230928 15 96 1.6 0.0 0.00 0.00 0.00 96 973.6
20260903230458 15 96 1.6 0.0 0.00 0.00 0.00 96 973.6
20260903230033 15 96 1.6 0.0 0.00 0.00 0.00 96 973.5
20260903225541 15 300 0.0 0.0 0.00 0.00 0.00 96 973.5
20260903225048 15 300 0.0 1.6 0.00 0.00 0.00 96 973.4
20260903224628 15 300 0.0 1.6 0.00 0.00 0.00 96 973.7
20260903224213 15 300 0.0 1.6 0.00 0.00 0.00 96 973.6
20260903223748 15 300 0.0 1.6 0.00 0.00 0.00 96 973.6
20260903223333 15 300 1.6 1.6 0.00 0.00 0.00 96 973.7
20260903222913 15 300 1.6 1.6 0.00 0.00 0.00 96 973.7
20260903222433 15 300 0.0 0.0 0.00 0.00 0.00 96 973.7
20260903221958 15 300 0.0 0.0 0.00 0.00 0.00 96 973.7
20260903221553 15 300 0.0 0.0 0.00 0.00 0.00 96 973.7
20260903221123 15 300 1.6 1.6 0.00 0.00 0.00 96 973.8
20260903220713 15 300 1.6 1.6 0.00 0.00 0.00 96 973.5
20260903220228 15 306 1.6 4.8 0.00 0.00 0.00 96 973.4
20260903215808 15 306 3.2 8.0 0.00 0.00 0.00 96 973.6
20260903215336 15 306 0.0 1.6 0.00 0.00 0.00 96 973.5
20260903214901 15 332 0.0 1.6 0.00 0.00 0.00 96 973.6
20260903214423 15 332 0.0 1.6 0.00 0.00 0.00 96 973.4
20260903213956 15 332 0.0 1.6 0.00 0.00 0.00 96 973.7
20260903213536 16 110 0.0 0.0 0.00 0.00 0.00 96 973.6
20260903213116 16 106 0.0 0.0 0.00 0.00 0.00 96 973.7
20260903212633 16 106 0.0 0.0 0.00 0.00 0.00 96 973.6
20260903212153 16 106 0.0 0.0 0.00 0.00 0.00 96 973.5
20260903211718 16 106 0.0 0.0 0.00 0.00 0.00 96 973.5
20260903211248 16 106 0.0 0.0 0.00 0.00 0.00 96 973.7
20260903210756 16 106 0.0 0.0 0.00 0.00 0.00 96 973.7
20260903210323 16 106 0.0 0.0 0.00 0.00 0.00 96 973.8
20260903205843 16 106 1.6 0.0 0.00 0.00 0.00 96 973.8
20260903205408 16 106 0.0 0.0 0.00 0.00 0.00 96 973.8
20260903204936 16 106 0.0 0.0 0.00 0.00 0.00 94 974.0
20260903204453 16 106 0.0 1.6 0.00 0.00 0.00 94 974.0
20260903204019 16 106 0.0 1.6 0.00 0.00 0.00 94 973.8
20260903203616 16 106 1.6 1.6 0.00 0.00 0.00 94 973.7
20260903203128 16 106 1.6 1.6 0.00 0.00 0.00 94 973.7
20260903202713 16 106 0.0 1.6 0.00 0.00 0.00 94 973.8
20260903202253 16 106 0.0 1.6 0.00 0.00 0.00 94 973.9
20260903201843 16 106 0.0 1.6 0.00 0.00 0.00 94 973.7
20260903201356 16 106 0.0 1.6 0.00 0.00 0.00 94 973.8
20260903200916 16 106 0.0 1.6 0.00 0.00 0.00 94 973.3
20260903200508 16 106 0.0 1.6 0.00 0.00 0.00 94 973.5
20260903200043 16 106 0.0 0.0 0.00 0.00 0.00 94 973.5
20260903195553 16 106 0.0 0.0 0.00 0.00 0.00 94 973.3
20260903195116 16 106 0.0 0.0 0.00 0.00 0.00 94 973.3
20260903194658 16 106 0.0 0.0 0.00 0.00 0.00 94 973.3
20260903194233 16 106 0.0 0.0 0.00 0.00 0.00 94 973.5
20260903193748 16 106 0.0 0.0 0.00 0.00 0.00 94 973.3
20260903193256 16 106 0.0 0.0 0.00 0.00 0.00 94 973.4
20260903192843 16 106 0.0 0.0 0.00 0.00 0.00 94 973.5
20260903192422 16 106 0.0 0.0 0.00 0.00 0.00 93 973.6
20260903192013 16 106 0.0 0.0 0.00 0.00 0.00 94 973.6
20260903191533 16 106 0.0 0.0 0.00 0.00 0.00 94 973.6
20260903191058 16 106 0.0 0.0 0.00 0.00 0.00 90 973.6
20260903190628 16 106 0.0 1.6 0.00 0.00 0.00 90 973.4
20260903190213 16 106 0.0 1.6 0.00 0.00 0.00 90 973.6
20260903185758 16 106 0.0 1.6 0.00 0.00 0.00 90 973.6
20260903185336 16 106 0.0 0.0 0.00 0.00 0.00 90 973.6
20260903184913 16 106 0.0 0.0 0.00 0.00 0.00 90 973.6
20260903184443 16 106 0.0 0.0 0.00 0.00 0.00 90 973.5
20260903183953 16 106 0.0 0.0 0.00 0.00 0.00 90 973.6
20260903183456 16 106 0.0 0.0 0.00 0.00 0.00 90 973.5
20260903183018 16 106 0.0 0.0 0.00 0.00 0.00 90 973.6
20260903182533 16 106 0.0 0.0 0.00 0.00 0.00 90 973.6
20260903182059 16 106 0.0 0.0 0.00 0.00 0.00 90 973.6
20260903181623 16 106 0.0 0.0 0.00 0.00 0.00 90 973.6
20260903181156 16 106 0.0 0.0 0.00 0.00 0.00 90 973.3
20260903180743 16 106 0.0 0.0 0.00 0.00 0.00 90 973.5
20260903180308 16 106 1.6 1.6 0.00 0.00 0.00 90 973.5
20260903175856 16 106 0.0 0.0 0.00 0.00 0.00 90 973.2
20260903175407 16 106 0.0 1.6 0.00 0.00 0.00 90 973.4
20260903174938 16 106 0.0 1.6 0.00 0.00 0.00 90 973.5
20260903174513 16 106 0.0 0.0 0.00 0.00 0.00 90 973.6
20260903174033 16 99 0.0 0.0 0.00 0.00 0.00 90 973.3
20260903173603 16 99 0.0 0.0 0.00 0.00 0.00 90 973.3
20260903173143 16 99 0.0 0.0 0.00 0.00 0.00 90 973.3
20260903172703 16 99 1.6 1.6 0.00 0.00 0.00 90 973.1
20260903172236 16 99 1.6 1.6 0.00 0.00 0.00 90 973.3
20260903171806 16 99 1.6 1.6 0.00 0.00 0.00 90 973.2
20260903171328 16 99 1.6 1.6 0.00 0.00 0.00 89 973.2
20260903170913 16 99 0.0 1.6 0.00 0.00 0.00 89 973.4
20260903170438 16 99 0.0 1.6 0.00 0.00 0.00 89 973.5
20260903170028 16 99 0.0 1.6 0.00 0.00 0.00 89 973.2
20260903165616 16 99 0.0 0.0 0.00 0.00 0.00 89 973.4
20260903165208 16 99 0.0 0.0 0.00 0.00 0.00 89 973.5
20260903164736 16 99 0.0 0.0 0.00 0.00 0.00 87 973.6
20260903164308 16 99 0.0 0.0 0.00 0.00 0.00 87 973.4
20260903163834 16 106 0.0 0.0 0.00 0.00 0.00 87 973.7
20260903163423 16 106 0.0 0.0 0.00 0.00 0.00 87 973.7
20260903162958 16 106 0.0 4.8 0.00 0.00 0.00 87 973.7
20260903162523 16 106 1.6 4.8 0.00 0.00 0.00 87 973.7
20260903162028 16 106 0.0 4.8 0.00 0.00 0.00 87 973.7
20260903161613 16 106 0.0 4.8 0.00 0.00 0.00 87 973.7
20260903161143 16 106 0.0 1.6 0.00 0.00 0.00 87 973.7
20260903160713 16 111 0.0 1.6 0.00 0.00 0.00 87 973.9
20260903160253 16 69 0.0 0.0 0.00 0.00 0.00 87 974.2
20260903155828 16 69 0.0 0.0 0.00 0.00 0.00 87 974.0
20260903155353 16 69 0.0 0.0 0.00 0.00 0.00 87 974.1
20260903154918 16 69 0.0 0.0 0.00 0.00 0.00 87 973.9
20260903154436 16 69 0.0 0.0 0.00 0.00 0.00 87 974.0
20260903153948 16 69 0.0 0.0 0.00 0.00 0.00 87 974.1
20260903153533 16 69 0.0 0.0 0.00 0.00 0.00 87 974.2
20260903153048 16 69 0.0 0.0 0.00 0.00 0.00 87 973.9
20260903152623 16 69 0.0 0.0 0.00 0.00 0.00 87 974.1
20260903152138 16 68 1.6 1.6 0.00 0.00 0.00 87 974.1
20260903151713 16 67 0.0 1.6 0.00 0.00 0.00 87 973.9
20260903151236 16 67 0.0 1.6 0.00 0.00 0.00 87 974.0
20260903150818 16 65 0.0 1.6 0.00 0.00 0.00 87 974.0
20260903150346 16 65 0.0 1.6 0.00 0.00 0.00 87 974.0
20260903145928 16 65 0.0 0.0 0.00 0.00 0.00 87 973.8
20260903145513 16 66 0.0 0.0 0.00 0.00 0.00 87 973.9
20260903145053 16 338 0.0 1.6 0.00 0.00 0.00 88 973.9
20260903144153 16 338 0.0 1.6 0.00 0.00 0.00 85 974.1
20260903143733 16 338 1.6 1.6 0.00 0.00 0.00 85 974.2
20260903143253 16 338 1.6 1.6 0.00 0.00 0.00 85 974.0
20260903142813 16 338 0.0 1.6 0.00 0.00 0.00 85 974.4
20260903142343 17 338 0.0 4.8 0.00 0.00 0.00 85 974.2
20260903141853 17 335 0.0 0.0 0.00 0.00 0.00 85 974.6
20260903141403 17 335 1.6 4.8 0.00 0.00 0.00 83 974.6
20260903140903 17 335 1.6 4.8 0.00 0.00 0.00 83 974.4
20260903140436 17 349 0.0 4.8 0.00 0.00 0.00 83 974.5
20260903140008 17 286 3.2 4.8 0.00 0.00 0.00 83 974.3
20260903135533 17 286 3.2 8.0 0.00 0.00 0.00 83 974.2
20260903135058 17 286 3.2 8.0 0.00 0.00 0.00 83 974.4
20260903134623 17 286 3.2 8.0 0.00 0.00 0.00 83 974.2
20260903134136 17 9 1.6 4.8 0.00 0.00 0.00 81 974.2
20260903133653 17 102 1.6 1.6 0.00 0.00 0.00 81 974.2
20260903133238 17 102 3.2 1.6 0.00 0.00 0.00 81 974.2
20260903132758 17 306 0.0 1.6 0.00 0.00 0.00 81 974.1
20260903132333 17 306 3.2 1.6 0.00 0.00 0.00 78 974.2
20260903131853 18 306 3.2 1.6 0.00 0.00 0.00 68 974.4
20260903131433 18 306 1.6 1.6 0.00 0.00 0.00 68 974.1
20260903131013 18 274 1.6 8.0 0.00 0.00 0.00 68 974.2
20260903130533 20 265 0.0 14.5 0.00 0.00 0.00 68 974.3
20260903130113 20 321 14.5 8.0 0.00 0.00 0.00 57 974.6
20260903125656 20 321 14.5 14.5 0.00 0.00 0.00 57 974.4
20260903125246 20 321 14.5 20.9 0.00 0.00 0.00 57 974.2
20260903124816 20 334 11.3 29.0 0.00 0.00 0.00 57 974.3
20260903124401 20 159 8.0 14.5 0.00 0.00 0.00 57 974.3
20260903123956 20 159 6.4 14.5 0.00 0.00 0.00 57 974.3
20260903123523 20 159 6.4 11.3 0.00 0.00 0.00 57 974.1
20260903123113 20 159 6.4 11.3 0.00 0.00 0.00 52 973.8
20260903122638 20 324 0.0 8.0 0.00 0.00 0.00 52 973.8
20260903122213 20 159 1.6 20.9 0.00 0.00 0.00 52 973.7
20260903121723 20 341 4.8 20.9 0.00 0.00 0.00 52 974.0
20260903121233 20 341 3.2 14.5 0.00 0.00 0.00 52 974.0
20260903120808 20 341 1.6 14.5 0.00 0.00 0.00 50 974.0
20260903120328 20 289 8.0 8.0 0.00 0.00 0.00 50 974.2
20260903115916 20 289 11.3 8.0 0.00 0.00 0.00 50 974.1
20260903115513 20 289 3.2 8.0 0.00 0.00 0.00 50 974.2
20260903115048 20 159 3.2 22.5 0.00 0.00 0.00 50 974.2
20260903114618 20 159 3.2 4.8 0.00 0.00 0.00 50 974.3
20260903114158 20 159 3.2 14.5 0.00 0.00 0.00 50 974.5
20260903113728 20 159 14.5 20.9 0.00 0.00 0.00 50 974.5
20260903113256 20 159 3.2 17.7 0.00 0.00 0.00 50 974.4
20260903112843 20 345 12.9 20.9 0.00 0.00 0.00 50 974.3
20260903112423 20 216 6.4 29.0 0.00 0.00 0.00 51 974.5
20260903111948 20 216 6.4 25.7 0.00 0.00 0.00 51 974.6
20260903111538 20 216 3.2 11.3 0.00 0.00 0.00 52 974.4
20260903111103 20 263 11.3 20.9 0.00 0.00 0.00 52 974.4
20260903110623 20 149 6.4 14.5 0.00 0.00 0.00 52 974.7
20260903110123 20 159 17.7 14.5 0.00 0.00 0.00 53 974.4
20260903105656 20 203 9.7 20.9 0.00 0.00 0.00 53 974.6
20260903105233 20 203 9.7 20.9 0.00 0.00 0.00 53 974.6
20260903104823 19 203 1.6 8.0 0.00 0.00 0.00 53 974.8
20260903104358 19 317 1.6 14.5 0.00 0.00 0.00 53 974.5
20260903103923 19 136 8.0 17.7 0.00 0.00 0.00 53 974.7
20260903103514 20 136 12.9 17.7 0.00 0.00 0.00 53 974.8
20260903103102 20 114 17.7 22.5 0.00 0.00 0.00 48 974.6
20260903102656 20 114 12.9 17.7 0.00 0.00 0.00 48 974.8
20260903102213 20 321 20.9 35.4 0.00 0.00 0.00 48 974.9
20260903101743 20 260 32.2 14.5 0.00 0.00 0.00 48 974.9
20260903101316 20 353 19.3 14.5 0.00 0.00 0.00 48 975.1
20260903100848 20 315 19.3 14.5 0.00 0.00 0.00 48 975.0
20260903100413 20 315 14.5 14.5 0.00 0.00 0.00 48 975.0
20260903095948 20 265 14.5 22.5 0.00 0.00 0.00 48 975.0
20260903095513 20 203 14.5 29.0 0.00 0.00 0.00 50 975.1
20260903095028 20 1 20.9 29.0 0.00 0.00 0.00 50 974.9
20260903094553 20 238 17.7 29.0 0.00 0.00 0.00 50 974.8